EUR65 FGSL-VABB

Flight info

Callsign EUR65
Flight time N/A
Altitude 37000
Route FGSL TI DLA TJM DELOR ASSAM TJR EPUTA ISDET ENERI MENIT ERESA XULAK ILBIB FSR DELAM AZAZA KTM BOPID PSD BOGUM NABTA LUBAP JDW LONOX NASIR TOXUL KEBUK KUTOL DIPEX UMRAN DEBAS AMBAG DEGNO KIPOM MIGMA KITAP ALPEK LUDID LABSA EGVAN TULBU GEVED GIDAN MUSRU SETSI RASKI LADOT NOBAT EXOLU VABB
Aircraft A388/J-DGVW/C

Departure

Time 2026-04-23 06:27
Airport Malabo International Airport (FGSL)

Arrival

Time N/A
Airport Chhatrapati Shivaji Maharaj International Airport (VABB)
Time Latitude Longitude Altitude Speed Heading
2026-04-23 06:25 3.76434 8.71816 87 ft 11 kts 335°
2026-04-23 06:25 3.76491 8.71749 87 ft 11 kts 276°
2026-04-23 06:25 3.76454 8.71691 87 ft 3 kts 227°
2026-04-23 06:26 3.76447 8.71683 87 ft 14 kts 227°
2026-04-23 06:26 3.76193 8.71458 87 ft 85 kts 221°
2026-04-23 06:26 3.75575 8.70902 88 ft 153 kts 222°
2026-04-23 06:27 3.74645 8.70069 334 ft 201 kts 222°
2026-04-23 06:27 3.73573 8.69110 1398 ft 215 kts 222°
2026-04-23 06:27 3.72424 8.68083 2426 ft 229 kts 222°
2026-04-23 06:27 3.71206 8.66996 3434 ft 238 kts 222°
2026-04-23 06:28 3.69961 8.65894 4430 ft 241 kts 222°
2026-04-23 06:28 3.68731 8.64735 5417 ft 247 kts 227°
2026-04-23 06:28 3.67958 8.63152 6455 ft 263 kts 253°
2026-04-23 06:28 3.67901 8.61284 7486 ft 276 kts 277°
2026-04-23 06:29 3.68613 8.59499 8501 ft 278 kts 301°
2026-04-23 06:29 3.69981 8.58153 9508 ft 278 kts 326°
2026-04-23 06:29 3.71772 8.57474 10483 ft 275 kts 350°
2026-04-23 06:29 3.73668 8.57588 11491 ft 276 kts 14°
2026-04-23 06:30 3.75373 8.58472 12514 ft 280 kts 38°
2026-04-23 06:30 3.76691 8.60012 13152 ft 308 kts 58°
2026-04-23 06:30 3.77486 8.62104 13723 ft 338 kts 74°
2026-04-23 06:30 3.77943 8.64481 14262 ft 350 kts 81°
2026-04-23 06:31 3.78240 8.66867 14764 ft 341 kts 83°
2026-04-23 06:31 3.78523 8.69214 15243 ft 340 kts 83°
2026-04-23 06:31 3.78888 8.71562 15747 ft 344 kts 81°
2026-04-23 06:31 3.79382 8.73927 16259 ft 349 kts 78°
2026-04-23 06:32 3.80011 8.76288 16769 ft 353 kts 75°
2026-04-23 06:32 3.80763 8.78642 17281 ft 357 kts 72°
2026-04-23 06:32 3.81622 8.80999 17857 ft 365 kts 70°
2026-04-23 06:32 3.82574 8.83366 18393 ft 368 kts 69°
2026-04-23 06:33 3.83577 8.85691 18906 ft 370 kts 67°
2026-04-23 06:33 3.84647 8.88046 19411 ft 373 kts 66°
2026-04-23 06:33 3.85758 8.90403 19911 ft 376 kts 65°
2026-04-23 06:33 3.86904 8.92770 20412 ft 379 kts 64°
2026-04-23 06:34 3.88076 8.95146 20915 ft 382 kts 64°
2026-04-23 06:34 3.89271 8.97535 21416 ft 386 kts 64°
2026-04-23 06:34 3.90485 8.99941 21909 ft 388 kts 63°
2026-04-23 06:34 3.91711 9.02353 22401 ft 389 kts 63°
2026-04-23 06:35 3.92949 9.04781 22903 ft 394 kts 63°
2026-04-23 06:35 3.94204 9.07233 23406 ft 398 kts 63°
2026-04-23 06:35 3.95472 9.09706 23908 ft 401 kts 63°
2026-04-23 06:35 3.96754 9.12204 24411 ft 405 kts 63°
2026-04-23 06:36 3.98045 9.14719 24912 ft 408 kts 62°
2026-04-23 06:36 3.99347 9.17254 25414 ft 411 kts 62°
2026-04-23 06:36 4.00660 9.19811 25916 ft 414 kts 62°
2026-04-23 06:36 4.01984 9.22389 26419 ft 417 kts 62°
2026-04-23 06:37 4.03315 9.24981 26919 ft 420 kts 62°
2026-04-23 06:37 4.04655 9.27591 27409 ft 421 kts 61°
2026-04-23 06:37 4.05994 9.30201 27904 ft 423 kts 61°
2026-04-23 06:37 4.07298 9.32857 28415 ft 428 kts 64°
2026-04-23 06:38 4.08032 9.35780 28943 ft 440 kts 79°
2026-04-23 06:38 4.08136 9.38877 29486 ft 450 kts 89°
2026-04-23 06:38 4.07824 9.42019 30024 ft 457 kts 95°
2026-04-23 06:38 4.07245 9.45155 30556 ft 460 kts 99°
2026-04-23 06:39 4.06503 9.48280 31091 ft 462 kts 102°
2026-04-23 06:39 4.05667 9.51388 31624 ft 463 kts 103°
2026-04-23 06:39 4.04782 9.54498 32134 ft 466 kts 104°
2026-04-23 06:39 4.03879 9.57615 32637 ft 467 kts 105°
2026-04-23 06:40 4.02978 9.60738 33129 ft 466 kts 105°
2026-04-23 06:40 4.02097 9.63854 33630 ft 465 kts 105°
2026-04-23 06:40 4.01237 9.66980 34131 ft 466 kts 104°
2026-04-23 06:40 4.00405 9.70117 34633 ft 466 kts 104°
2026-04-23 06:41 3.99914 9.73320 35145 ft 466 kts 92°
2026-04-23 06:41 4.00279 9.76538 35688 ft 467 kts 77°
2026-04-23 06:41 4.01495 9.79562 36229 ft 472 kts 63°
2026-04-23 06:41 4.03483 9.82201 36676 ft 481 kts 48°
2026-04-23 06:42 4.06099 9.84359 36829 ft 495 kts 36°
2026-04-23 06:42 4.09095 9.86149 36868 ft 507 kts 30°
2026-04-23 06:42 4.15561 9.89207 36854 ft 514 kts 25°
2026-04-23 06:43 4.22078 9.92020 36849 ft 507 kts 25°
2026-04-23 06:43 4.28468 9.94867 36851 ft 505 kts 26°
2026-04-23 06:44 4.34808 9.97893 36854 ft 504 kts 27°
2026-04-23 06:44 4.41048 10.01079 36856 ft 503 kts 29°
2026-04-23 06:45 4.47219 10.04409 36860 ft 504 kts 30°
2026-04-23 06:45 4.52346 10.07281 36863 ft 504 kts 31°
2026-04-23 06:46 4.58427 10.10782 36867 ft 504 kts 31°
2026-04-23 06:46 4.64473 10.14337 36871 ft 504 kts 32°
2026-04-23 06:47 4.70505 10.17934 36875 ft 504 kts 32°
2026-04-23 06:47 4.76514 10.21552 36878 ft 504 kts 32°
2026-04-23 06:48 4.82476 10.25163 36882 ft 504 kts 32°
2026-04-23 06:48 4.88473 10.28810 36886 ft 504 kts 32°
2026-04-23 06:49 4.94467 10.32466 36889 ft 504 kts 32°
2026-04-23 06:49 5.00458 10.36125 36892 ft 504 kts 33°
2026-04-23 06:50 5.06447 10.39788 36894 ft 504 kts 33°
2026-04-23 06:50 5.12435 10.43453 36903 ft 504 kts 33°
2026-04-23 06:51 5.18425 10.47120 36906 ft 504 kts 33°
2026-04-23 06:51 5.24411 10.50787 36909 ft 504 kts 33°
2026-04-23 06:52 5.30401 10.54457 36911 ft 504 kts 33°
2026-04-23 06:52 5.36387 10.58126 36913 ft 504 kts 33°
2026-04-23 06:53 5.42373 10.61797 36915 ft 504 kts 33°
2026-04-23 06:53 5.48358 10.65467 36916 ft 504 kts 33°
2026-04-23 06:54 5.54344 10.69138 36918 ft 504 kts 33°
2026-04-23 06:54 5.60331 10.72811 36919 ft 504 kts 33°
2026-04-23 06:55 5.66282 10.76530 36920 ft 504 kts 33°
2026-04-23 06:55 5.72194 10.80315 36921 ft 504 kts 34°
2026-04-23 06:56 5.78090 10.84126 36921 ft 504 kts 34°
2026-04-23 06:56 5.83979 10.87948 36922 ft 504 kts 34°
2026-04-23 06:57 5.89862 10.91769 36922 ft 503 kts 34°
2026-04-23 06:57 5.95770 10.95606 36923 ft 509 kts 34°
2026-04-23 06:58 6.01745 10.99488 36923 ft 513 kts 33°
2026-04-23 06:58 6.07720 11.03370 36923 ft 516 kts 33°
2026-04-23 06:59 6.13761 11.07290 36923 ft 518 kts 33°
2026-04-23 06:59 6.19816 11.11217 36922 ft 518 kts 33°
2026-04-23 07:00 6.25878 11.15149 36922 ft 519 kts 33°
2026-04-23 07:00 6.31940 11.19082 36921 ft 519 kts 33°
2026-04-23 07:01 6.38003 11.23017 36921 ft 519 kts 33°
2026-04-23 07:01 6.44070 11.26956 36920 ft 519 kts 33°
2026-04-23 07:02 6.49985 11.31111 36919 ft 519 kts 39°
2026-04-23 07:02 6.55333 11.35978 36919 ft 519 kts 45°
2026-04-23 07:03 6.60376 11.41166 36917 ft 519 kts 47°
2026-04-23 07:03 6.65295 11.46471 36915 ft 518 kts 48°
2026-04-23 07:04 6.70174 11.51807 36913 ft 518 kts 48°
2026-04-23 07:04 6.75053 11.57148 36929 ft 518 kts 48°